Time,TemperatureF,DewpointF,PressureIn,WindDirection,WindDirectionDegrees,WindSpeedMPH,WindSpeedGustMPH,Humidity,HourlyPrecipIn,Conditions,Clouds,dailyrainin,SoftwareType,DateUTC
2013-08-26 00:01:00,69.6,56.0,29.71,SSW,202,2.5,2.5,62,0.00,,,0.00,VWS V14.01,2013-08-26 04:01:00,
2013-08-26 00:02:00,69.6,56.0,29.71,SSW,202,4.3,4.3,62,0.00,,,0.00,VWS V14.01,2013-08-26 04:02:00,
2013-08-26 00:07:00,69.8,55.8,29.71,NW,315,2.0,2.0,61,0.00,,,0.00,VWS V14.01,2013-08-26 04:07:00,
2013-08-26 00:12:00,70.0,55.9,29.71,SSE,158,0.0,0.0,61,0.00,,,0.00,VWS V14.01,2013-08-26 04:12:00,
2013-08-26 00:17:00,70.0,55.9,29.71,SSW,202,2.9,2.9,61,0.00,,,0.00,VWS V14.01,2013-08-26 04:17:00,
2013-08-26 00:22:00,70.0,55.9,29.71,WNW,292,2.5,2.5,61,0.00,,,0.00,VWS V14.01,2013-08-26 04:22:00,
2013-08-26 00:27:00,70.0,55.9,29.71,WSW,248,0.0,0.0,61,0.00,,,0.00,VWS V14.01,2013-08-26 04:27:00,
2013-08-26 00:32:00,69.8,55.8,29.71,SSW,202,0.0,0.0,61,0.00,,,0.00,VWS V14.01,2013-08-26 04:32:00,
2013-08-26 00:37:00,69.6,55.6,29.71,West,270,0.0,0.0,61,0.00,,,0.00,VWS V14.01,2013-08-26 04:37:00,
2013-08-26 00:42:00,69.4,55.9,29.71,West,270,0.0,0.0,62,0.00,,,0.00,VWS V14.01,2013-08-26 04:42:00,
2013-08-26 00:47:00,69.3,55.7,29.71,SSE,158,1.6,1.6,62,0.00,,,0.00,VWS V14.01,2013-08-26 04:47:00,
2013-08-26 00:52:00,68.9,55.8,29.71,SSE,158,1.6,1.6,63,0.00,,,0.00,VWS V14.01,2013-08-26 04:52:00,
2013-08-26 00:57:00,68.7,56.1,29.71,SSE,158,2.5,2.5,64,0.00,,,0.00,VWS V14.01,2013-08-26 04:57:00,
2013-08-26 01:02:00,68.5,55.9,29.71,South,180,1.6,1.6,64,0.00,,,0.00,VWS V14.01,2013-08-26 05:02:00,
2013-08-26 01:07:00,68.5,56.3,29.71,South,180,2.7,2.7,65,0.00,,,0.00,VWS V14.01,2013-08-26 05:07:00,
2013-08-26 01:13:00,68.4,56.2,29.71,South,180,2.0,2.0,65,0.00,,,0.00,VWS V14.01,2013-08-26 05:13:00,
2013-08-26 01:18:00,68.2,56.4,29.71,SSW,202,2.2,2.2,66,0.00,,,0.00,VWS V14.01,2013-08-26 05:18:00,
2013-08-26 01:23:00,68.2,56.4,29.71,SSW,202,2.9,2.9,66,0.00,,,0.00,VWS V14.01,2013-08-26 05:23:00,
2013-08-26 01:28:00,68.2,56.4,29.71,South,180,2.0,2.0,66,0.00,,,0.00,VWS V14.01,2013-08-26 05:28:00,
2013-08-26 01:33:00,68.2,56.4,29.71,SSE,158,1.1,1.1,66,0.00,,,0.00,VWS V14.01,2013-08-26 05:33:00,
2013-08-26 01:38:00,68.2,56.4,29.71,SSW,202,2.5,2.5,66,0.00,,,0.00,VWS V14.01,2013-08-26 05:38:00,
2013-08-26 01:43:00,68.2,56.8,29.71,South,180,3.8,3.8,67,0.00,,,0.00,VWS V14.01,2013-08-26 05:43:00,
2013-08-26 01:48:00,68.2,56.8,29.71,South,180,2.0,2.0,67,0.00,,,0.00,VWS V14.01,2013-08-26 05:48:00,
2013-08-26 01:53:00,68.2,56.8,29.71,SE,135,0.0,0.0,67,0.00,,,0.00,VWS V14.01,2013-08-26 05:53:00,
2013-08-26 01:58:00,68.2,56.8,29.71,South,180,3.1,3.1,67,0.00,,,0.00,VWS V14.01,2013-08-26 05:58:00,
2013-08-26 02:03:00,68.2,56.8,29.71,South,180,2.5,2.5,67,0.00,,,0.00,VWS V14.01,2013-08-26 06:03:00,
2013-08-26 02:08:00,68.2,57.2,29.71,South,180,2.7,2.7,68,0.00,,,0.00,VWS V14.01,2013-08-26 06:08:00,
2013-08-26 02:13:00,68.0,56.7,29.68,SE,135,2.5,2.5,67,0.00,,,0.00,VWS V14.01,2013-08-26 06:13:00,
2013-08-26 02:18:00,68.0,57.1,29.68,SSW,202,2.5,2.5,68,0.00,,,0.00,VWS V14.01,2013-08-26 06:18:00,
2013-08-26 02:23:00,68.0,57.1,29.68,SSW,202,3.6,3.6,68,0.00,,,0.00,VWS V14.01,2013-08-26 06:23:00,
2013-08-26 02:28:00,68.0,57.1,29.68,West,270,0.9,0.9,68,0.00,,,0.00,VWS V14.01,2013-08-26 06:28:00,
2013-08-26 02:33:00,67.8,56.9,29.68,SSW,202,2.5,2.5,68,0.00,,,0.00,VWS V14.01,2013-08-26 06:33:00,
2013-08-26 02:39:00,67.8,56.9,29.68,SSE,158,5.8,5.8,68,0.00,,,0.00,VWS V14.01,2013-08-26 06:39:00,
2013-08-26 02:44:00,67.6,56.7,29.68,South,180,1.3,1.3,68,0.00,,,0.00,VWS V14.01,2013-08-26 06:44:00,
2013-08-26 02:49:00,67.6,56.7,29.68,SSE,158,0.0,0.0,68,0.00,,,0.00,VWS V14.01,2013-08-26 06:49:00,
2013-08-26 02:54:00,67.6,56.7,29.68,SSW,202,0.0,0.0,68,0.00,,,0.00,VWS V14.01,2013-08-26 06:54:00,
2013-08-26 02:59:00,67.5,56.5,29.68,SSW,202,1.3,1.3,68,0.00,,,0.00,VWS V14.01,2013-08-26 06:59:00,
2013-08-26 03:04:00,67.3,56.4,29.68,SW,225,0.0,0.0,68,0.00,,,0.00,VWS V14.01,2013-08-26 07:04:00,
2013-08-26 03:09:00,67.3,56.8,29.68,SSW,202,1.1,1.1,69,0.00,,,0.00,VWS V14.01,2013-08-26 07:09:00,
2013-08-26 03:14:00,66.9,56.4,29.68,WSW,248,2.0,2.0,69,0.00,,,0.00,VWS V14.01,2013-08-26 07:14:00,
2013-08-26 03:19:00,66.9,56.4,29.68,SSW,202,2.0,2.0,69,0.00,,,0.00,VWS V14.01,2013-08-26 07:19:00,
2013-08-26 03:24:00,66.7,56.7,29.68,SSW,202,3.8,3.8,70,0.00,,,0.00,VWS V14.01,2013-08-26 07:24:00,
2013-08-26 03:29:00,66.6,56.5,29.65,SSE,158,1.3,1.3,70,0.00,,,0.00,VWS V14.01,2013-08-26 07:29:00,
2013-08-26 03:34:00,66.6,56.5,29.65,SSW,202,4.9,4.9,70,0.00,,,0.00,VWS V14.01,2013-08-26 07:34:00,
2013-08-26 03:39:00,66.6,56.5,29.65,South,180,2.9,2.9,70,0.00,,,0.00,VWS V14.01,2013-08-26 07:39:00,
2013-08-26 03:44:00,66.7,56.7,29.65,SSE,158,2.5,2.5,70,0.00,,,0.00,VWS V14.01,2013-08-26 07:44:00,
2013-08-26 03:49:00,66.6,56.5,29.65,South,180,2.2,2.2,70,0.00,,,0.00,VWS V14.01,2013-08-26 07:49:00,
2013-08-26 03:55:00,66.6,56.5,29.65,SE,135,1.3,1.3,70,0.00,,,0.00,VWS V14.01,2013-08-26 07:55:00,
2013-08-26 04:00:00,66.4,56.3,29.68,North,0,0.0,0.0,70,0.00,,,0.00,VWS V14.01,2013-08-26 08:00:00,
2013-08-26 04:05:00,66.4,56.3,29.68,SSW,202,1.1,1.1,70,0.00,,,0.00,VWS V14.01,2013-08-26 08:05:00,
2013-08-26 04:10:00,66.2,56.5,29.68,South,180,2.7,2.7,71,0.00,,,0.00,VWS V14.01,2013-08-26 08:10:00,
2013-08-26 04:15:00,66.0,56.7,29.68,South,180,2.7,2.7,72,0.00,,,0.00,VWS V14.01,2013-08-26 08:15:00,
2013-08-26 04:20:00,65.8,56.6,29.68,South,180,2.0,2.0,72,0.00,,,0.00,VWS V14.01,2013-08-26 08:20:00,
2013-08-26 04:25:00,65.8,56.6,29.68,SSW,202,4.9,4.9,72,0.00,,,0.00,VWS V14.01,2013-08-26 08:25:00,
2013-08-26 04:30:00,66.0,56.7,29.68,South,180,4.0,4.0,72,0.00,,,0.00,VWS V14.01,2013-08-26 08:30:00,
2013-08-26 04:35:00,66.2,56.9,29.68,SSW,202,3.8,3.8,72,0.00,,,0.00,VWS V14.01,2013-08-26 08:35:00,
2013-08-26 04:40:00,66.2,56.9,29.68,SSW,202,3.1,3.1,72,0.00,,,0.00,VWS V14.01,2013-08-26 08:40:00,
2013-08-26 04:45:00,66.2,56.9,29.68,South,180,3.4,3.4,72,0.00,,,0.00,VWS V14.01,2013-08-26 08:45:00,
2013-08-26 04:50:00,66.2,56.9,29.68,South,180,2.7,2.7,72,0.00,,,0.00,VWS V14.01,2013-08-26 08:50:00,
2013-08-26 04:55:00,66.2,56.9,29.68,WSW,248,2.0,2.0,72,0.00,,,0.00,VWS V14.01,2013-08-26 08:55:00,
2013-08-26 05:01:00,66.2,56.9,29.68,SSW,202,3.1,3.1,72,0.00,,,0.00,VWS V14.01,2013-08-26 09:01:00,
2013-08-26 05:06:00,66.4,57.1,29.68,SSE,158,2.7,2.7,72,0.00,,,0.00,VWS V14.01,2013-08-26 09:06:00,
2013-08-26 05:11:00,66.4,57.1,29.68,South,180,5.4,5.4,72,0.00,,,0.00,VWS V14.01,2013-08-26 09:11:00,
2013-08-26 05:16:00,66.4,57.1,29.68,South,180,2.5,2.5,72,0.00,,,0.00,VWS V14.01,2013-08-26 09:16:00,
2013-08-26 05:21:00,66.4,57.1,29.68,South,180,2.7,2.7,72,0.00,,,0.00,VWS V14.01,2013-08-26 09:21:00,
2013-08-26 05:26:00,66.4,57.5,29.68,South,180,0.0,0.0,73,0.00,,,0.00,VWS V14.01,2013-08-26 09:26:00,
2013-08-26 05:31:00,66.4,57.5,29.68,SSW,202,3.4,3.4,73,0.00,,,0.00,VWS V14.01,2013-08-26 09:31:00,
2013-08-26 05:36:00,66.4,57.5,29.68,South,180,0.0,0.0,73,0.00,,,0.00,VWS V14.01,2013-08-26 09:36:00,
2013-08-26 05:41:00,66.4,57.5,29.68,SSW,202,2.0,2.0,73,0.00,,,0.00,VWS V14.01,2013-08-26 09:41:00,
2013-08-26 05:46:00,66.4,57.5,29.65,WSW,248,0.0,0.0,73,0.00,,,0.00,VWS V14.01,2013-08-26 09:46:00,
2013-08-26 05:51:00,66.4,57.5,29.65,WSW,248,0.0,0.0,73,0.00,,,0.00,VWS V14.01,2013-08-26 09:51:00,
2013-08-26 05:56:00,66.4,57.5,29.65,North,0,0.0,0.0,73,0.00,,,0.00,VWS V14.01,2013-08-26 09:56:00,
2013-08-26 06:01:00,66.4,57.8,29.68,NE,45,0.0,0.0,74,0.00,,,0.00,VWS V14.01,2013-08-26 10:01:00,
2013-08-26 06:06:00,66.2,57.7,29.68,SSE,158,2.0,2.0,74,0.00,,,0.00,VWS V14.01,2013-08-26 10:06:00,
2013-08-26 06:11:00,66.2,57.7,29.68,SSE,158,2.7,2.7,74,0.00,,,0.00,VWS V14.01,2013-08-26 10:11:00,
2013-08-26 06:17:00,66.2,57.7,29.68,SSE,158,2.7,2.7,74,0.00,,,0.00,VWS V14.01,2013-08-26 10:17:00,
2013-08-26 06:22:00,66.2,57.7,29.68,South,180,2.7,2.7,74,0.00,,,0.00,VWS V14.01,2013-08-26 10:22:00,
2013-08-26 06:27:00,66.0,57.5,29.68,SSW,202,3.4,3.4,74,0.00,,,0.00,VWS V14.01,2013-08-26 10:27:00,
2013-08-26 06:32:00,65.8,57.3,29.68,South,180,2.9,2.9,74,0.00,,,0.00,VWS V14.01,2013-08-26 10:32:00,
2013-08-26 06:37:00,65.8,57.7,29.68,South,180,3.1,3.1,75,0.00,,,0.00,VWS V14.01,2013-08-26 10:37:00,
2013-08-26 06:42:00,65.8,57.7,29.68,ESE,112,2.2,2.2,75,0.00,,,0.00,VWS V14.01,2013-08-26 10:42:00,
2013-08-26 06:47:00,65.8,57.7,29.68,South,180,3.6,3.6,75,0.00,,,0.00,VWS V14.01,2013-08-26 10:47:00,
2013-08-26 06:52:00,65.8,57.7,29.68,SSW,202,2.7,2.7,75,0.00,,,0.00,VWS V14.01,2013-08-26 10:52:00,
2013-08-26 06:57:00,65.8,57.7,29.68,South,180,4.0,4.0,75,0.00,,,0.00,VWS V14.01,2013-08-26 10:57:00,
2013-08-26 07:02:00,66.0,58.2,29.68,SSW,202,2.2,2.2,76,0.00,,,0.00,VWS V14.01,2013-08-26 11:02:00,
2013-08-26 07:07:00,66.0,58.2,29.68,SSW,202,3.1,3.1,76,0.00,,,0.00,VWS V14.01,2013-08-26 11:07:00,
2013-08-26 07:12:00,66.0,58.2,29.68,SSW,202,2.5,2.5,76,0.00,,,0.00,VWS V14.01,2013-08-26 11:12:00,
2013-08-26 07:17:00,66.2,58.4,29.65,SSW,202,3.4,3.4,76,0.00,,,0.00,VWS V14.01,2013-08-26 11:17:00,
2013-08-26 07:22:00,66.2,58.4,29.65,SSE,158,2.7,2.7,76,0.00,,,0.00,VWS V14.01,2013-08-26 11:22:00,
2013-08-26 07:27:00,66.2,58.4,29.65,SW,225,2.7,2.7,76,0.00,,,0.00,VWS V14.01,2013-08-26 11:27:00,
2013-08-26 07:32:00,66.4,58.6,29.68,SSE,158,1.6,1.6,76,0.00,,,0.00,VWS V14.01,2013-08-26 11:32:00,
2013-08-26 07:37:00,66.4,59.0,29.68,SSW,202,2.0,2.0,77,0.00,,,0.00,VWS V14.01,2013-08-26 11:37:00,
2013-08-26 07:42:00,66.6,58.8,29.68,SE,135,3.4,3.4,76,0.00,,,0.00,VWS V14.01,2013-08-26 11:42:00,
2013-08-26 07:47:00,66.7,58.9,29.68,South,180,3.1,3.1,76,0.00,,,0.00,VWS V14.01,2013-08-26 11:47:00,
2013-08-26 07:52:00,66.9,59.1,29.68,SSW,202,2.0,2.0,76,0.00,,,0.00,VWS V14.01,2013-08-26 11:52:00,
2013-08-26 07:57:00,66.9,59.1,29.68,SSW,202,3.4,3.4,76,0.00,,,0.00,VWS V14.01,2013-08-26 11:57:00,
2013-08-26 08:02:00,66.9,58.8,29.68,WSW,248,3.4,3.4,75,0.00,,,0.00,VWS V14.01,2013-08-26 12:02:00,
2013-08-26 08:07:00,66.9,59.1,29.68,SSW,202,4.9,4.9,76,0.00,,,0.00,VWS V14.01,2013-08-26 12:07:00,
2013-08-26 08:12:00,67.1,58.9,29.68,SSW,202,4.0,4.0,75,0.00,,,0.00,VWS V14.01,2013-08-26 12:12:00,
2013-08-26 08:17:00,67.1,58.9,29.65,SSW,202,3.1,3.1,75,0.00,,,0.00,VWS V14.01,2013-08-26 12:17:00,
2013-08-26 08:22:00,67.3,59.5,29.65,SSW,202,3.6,3.6,76,0.00,,,0.00,VWS V14.01,2013-08-26 12:22:00,
2013-08-26 08:27:00,67.6,59.8,29.65,SSE,158,6.3,6.3,76,0.00,,,0.00,VWS V14.01,2013-08-26 12:27:00,
2013-08-26 08:32:00,67.8,59.6,29.65,SE,135,5.4,5.4,75,0.00,,,0.00,VWS V14.01,2013-08-26 12:32:00,
2013-08-26 08:37:00,68.2,60.0,29.65,SSW,202,1.3,1.3,75,0.00,,,0.00,VWS V14.01,2013-08-26 12:37:00,
2013-08-26 08:42:00,68.5,59.9,29.65,SSW,202,6.3,6.3,74,0.00,,,0.00,VWS V14.01,2013-08-26 12:42:00,
2013-08-26 08:47:00,68.7,60.1,29.65,South,180,5.6,5.6,74,0.00,,,0.00,VWS V14.01,2013-08-26 12:47:00,
2013-08-26 08:52:00,68.9,60.3,29.65,South,180,5.4,5.4,74,0.00,,,0.00,VWS V14.01,2013-08-26 12:52:00,
2013-08-26 08:57:00,69.1,60.1,29.65,SSW,202,4.0,4.0,73,0.00,,,0.00,VWS V14.01,2013-08-26 12:57:00,
2013-08-26 09:03:00,69.3,60.2,29.68,South,180,2.7,2.7,73,0.00,,,0.00,VWS V14.01,2013-08-26 13:03:00,
2013-08-26 09:08:00,69.4,60.4,29.68,WSW,248,0.9,0.9,73,0.00,,,0.00,VWS V14.01,2013-08-26 13:08:00,
2013-08-26 09:13:00,69.4,60.4,29.68,West,270,2.5,2.5,73,0.00,,,0.00,VWS V14.01,2013-08-26 13:13:00,
2013-08-26 09:18:00,69.8,60.4,29.68,South,180,2.9,2.9,72,0.00,,,0.00,VWS V14.01,2013-08-26 13:18:00,
2013-08-26 09:23:00,70.2,60.3,29.68,SSW,202,1.3,1.3,71,0.00,,,0.00,VWS V14.01,2013-08-26 13:23:00,
2013-08-26 09:28:00,70.5,60.7,29.68,WSW,248,2.7,2.7,71,0.00,,,0.00,VWS V14.01,2013-08-26 13:28:00,
2013-08-26 09:33:00,70.9,60.6,29.68,WNW,292,1.1,1.1,70,0.00,,,0.00,VWS V14.01,2013-08-26 13:33:00,
2013-08-26 09:38:00,71.2,61.0,29.68,SSW,202,4.7,4.7,70,0.00,,,0.00,VWS V14.01,2013-08-26 13:38:00,
2013-08-26 09:43:00,71.6,60.9,29.68,WSW,248,4.7,4.7,69,0.00,,,0.00,VWS V14.01,2013-08-26 13:43:00,
2013-08-26 09:48:00,71.8,61.1,29.68,SSW,202,5.4,5.4,69,0.00,,,0.00,VWS V14.01,2013-08-26 13:48:00,
2013-08-26 09:53:00,72.1,61.0,29.68,SW,225,2.0,2.0,68,0.00,,,0.00,VWS V14.01,2013-08-26 13:53:00,
2013-08-26 09:58:00,72.5,60.5,29.68,WSW,248,2.9,2.9,66,0.00,,,0.00,VWS V14.01,2013-08-26 13:58:00,
2013-08-26 10:03:00,72.5,60.1,29.68,West,270,3.4,3.4,65,0.00,,,0.00,VWS V14.01,2013-08-26 14:03:00,
2013-08-26 10:08:00,72.9,59.5,29.68,NW,315,3.8,3.8,63,0.00,,,0.00,VWS V14.01,2013-08-26 14:08:00,
2013-08-26 10:13:00,73.2,60.3,29.65,WSW,248,3.1,3.1,64,0.00,,,0.00,VWS V14.01,2013-08-26 14:13:00,
2013-08-26 10:18:00,73.8,60.8,29.65,WSW,248,3.1,3.1,64,0.00,,,0.00,VWS V14.01,2013-08-26 14:18:00,
2013-08-26 10:23:00,74.1,61.2,29.65,SW,225,3.1,3.1,64,0.00,,,0.00,VWS V14.01,2013-08-26 14:23:00,
2013-08-26 10:29:00,74.5,60.2,29.65,WSW,248,3.8,3.8,61,0.00,,,0.00,VWS V14.01,2013-08-26 14:29:00,
2013-08-26 10:34:00,74.7,59.4,29.65,WSW,248,3.1,3.1,59,0.00,,,0.00,VWS V14.01,2013-08-26 14:34:00,
2013-08-26 10:39:00,74.8,61.0,29.65,West,270,2.7,2.7,62,0.00,,,0.00,VWS V14.01,2013-08-26 14:39:00,
2013-08-26 10:44:00,75.4,61.0,29.65,WNW,292,3.8,3.8,61,0.00,,,0.00,VWS V14.01,2013-08-26 14:44:00,
2013-08-26 10:49:00,75.6,59.8,29.65,WSW,248,5.4,5.4,58,0.00,,,0.00,VWS V14.01,2013-08-26 14:49:00,
2013-08-26 10:54:00,75.9,61.0,29.65,SSW,202,3.8,3.8,60,0.00,,,0.00,VWS V14.01,2013-08-26 14:54:00,
2013-08-26 10:59:00,76.3,60.9,29.62,WSW,248,1.1,1.1,59,0.00,,,0.00,VWS V14.01,2013-08-26 14:59:00,
2013-08-26 11:04:00,76.6,60.3,29.62,SSW,202,3.8,3.8,57,0.00,,,0.00,VWS V14.01,2013-08-26 15:04:00,
2013-08-26 11:09:00,77.2,61.3,29.62,South,180,4.3,4.3,58,0.00,,,0.00,VWS V14.01,2013-08-26 15:09:00,
2013-08-26 11:14:00,77.5,61.6,29.59,South,180,3.8,3.8,58,0.00,,,0.00,VWS V14.01,2013-08-26 15:14:00,
2013-08-26 11:19:00,78.1,61.6,29.59,South,180,2.5,2.5,57,0.00,,,0.00,VWS V14.01,2013-08-26 15:19:00,
2013-08-26 11:24:00,78.4,61.5,29.59,West,270,3.8,3.8,56,0.00,,,0.00,VWS V14.01,2013-08-26 15:24:00,
2013-08-26 11:29:00,78.6,61.6,29.62,NW,315,3.8,3.8,56,0.00,,,0.00,VWS V14.01,2013-08-26 15:29:00,
2013-08-26 11:34:00,79.0,61.5,29.62,SW,225,3.1,3.1,55,0.00,,,0.00,VWS V14.01,2013-08-26 15:34:00,
2013-08-26 11:39:00,79.2,60.0,29.62,WSW,248,0.9,0.9,52,0.00,,,0.00,VWS V14.01,2013-08-26 15:39:00,
2013-08-26 11:45:00,79.5,59.8,29.59,WSW,248,10.5,10.5,51,0.00,,,0.00,VWS V14.01,2013-08-26 15:45:00,
2013-08-26 11:50:00,79.5,58.7,29.59,WNW,292,5.8,5.8,49,0.00,,,0.00,VWS V14.01,2013-08-26 15:50:00,
2013-08-26 11:55:00,79.7,59.4,29.59,West,270,4.9,4.9,50,0.00,,,0.00,VWS V14.01,2013-08-26 15:55:00,
2013-08-26 12:00:00,79.7,58.3,29.62,WSW,248,9.8,9.8,48,0.00,,,0.00,VWS V14.01,2013-08-26 16:00:00,
2013-08-26 12:05:00,79.7,58.9,29.62,WSW,248,3.4,3.4,49,0.00,,,0.00,VWS V14.01,2013-08-26 16:05:00,
2013-08-26 12:10:00,79.9,59.0,29.62,West,270,2.5,2.5,49,0.00,,,0.00,VWS V14.01,2013-08-26 16:10:00,
2013-08-26 12:15:00,79.9,60.2,29.62,West,270,3.4,3.4,51,0.00,,,0.00,VWS V14.01,2013-08-26 16:15:00,
2013-08-26 12:20:00,80.1,59.2,29.62,WSW,248,7.2,7.2,49,0.00,,,0.00,VWS V14.01,2013-08-26 16:20:00,
2013-08-26 12:25:00,80.1,59.2,29.62,West,270,4.3,4.3,49,0.00,,,0.00,VWS V14.01,2013-08-26 16:25:00,
2013-08-26 12:30:00,80.1,59.2,29.62,WNW,292,6.5,6.5,49,0.00,,,0.00,VWS V14.01,2013-08-26 16:30:00,
2013-08-26 12:35:00,80.1,59.2,29.62,SSW,202,4.0,4.0,49,0.00,,,0.00,VWS V14.01,2013-08-26 16:35:00,
2013-08-26 12:40:00,80.1,57.4,29.62,WSW,248,4.5,4.5,46,0.00,,,0.00,VWS V14.01,2013-08-26 16:40:00,
2013-08-26 12:45:00,80.1,59.8,29.59,South,180,1.3,1.3,50,0.00,,,0.00,VWS V14.01,2013-08-26 16:45:00,
2013-08-26 12:50:00,79.9,60.2,29.59,South,180,1.6,1.6,51,0.00,,,0.00,VWS V14.01,2013-08-26 16:50:00,
2013-08-26 12:55:00,79.7,59.4,29.59,SSW,202,1.3,1.3,50,0.00,,,0.00,VWS V14.01,2013-08-26 16:55:00,
2013-08-26 13:00:00,79.5,59.8,29.59,WSW,248,2.2,2.2,51,0.00,,,0.00,VWS V14.01,2013-08-26 17:00:00,
2013-08-26 13:05:00,79.3,59.7,29.59,WSW,248,1.6,1.6,51,0.00,,,0.00,VWS V14.01,2013-08-26 17:05:00,
2013-08-26 13:10:00,79.3,59.7,29.59,SW,225,1.3,1.3,51,0.00,,,0.00,VWS V14.01,2013-08-26 17:10:00,
2013-08-26 13:15:00,79.3,60.2,29.59,WSW,248,2.2,2.2,52,0.00,,,0.00,VWS V14.01,2013-08-26 17:15:00,
2013-08-26 13:20:00,79.7,61.1,29.59,SSW,202,3.4,3.4,53,0.00,,,0.00,VWS V14.01,2013-08-26 17:20:00,
2013-08-26 13:26:00,79.7,61.1,29.59,SSW,202,1.3,1.3,53,0.00,,,0.00,VWS V14.01,2013-08-26 17:26:00,
2013-08-26 13:31:00,79.9,61.2,29.56,WSW,248,1.3,1.3,53,0.00,,,0.00,VWS V14.01,2013-08-26 17:31:00,
2013-08-26 13:36:00,80.2,62.1,29.56,South,180,2.0,2.0,54,0.00,,,0.00,VWS V14.01,2013-08-26 17:36:00,
2013-08-26 13:41:00,80.8,62.1,29.56,WNW,292,5.4,5.4,53,0.00,,,0.00,VWS V14.01,2013-08-26 17:41:00,
2013-08-26 13:46:00,81.5,63.3,29.56,SSW,202,2.0,2.0,54,0.00,,,0.00,VWS V14.01,2013-08-26 17:46:00,
2013-08-26 13:51:00,82.2,61.8,29.56,West,270,4.9,4.9,50,0.00,,,0.00,VWS V14.01,2013-08-26 17:51:00,
2013-08-26 13:56:00,82.9,60.7,29.56,SSW,202,2.7,2.7,47,0.00,,,0.00,VWS V14.01,2013-08-26 17:56:00,
2013-08-26 14:01:00,83.5,61.8,29.53,NW,315,8.5,8.5,48,0.00,,,0.00,VWS V14.01,2013-08-26 18:01:00,
2013-08-26 14:06:00,84.0,59.8,29.53,SSW,202,2.9,2.9,44,0.00,,,0.00,VWS V14.01,2013-08-26 18:06:00,
2013-08-26 14:11:00,83.8,58.3,29.53,West,270,12.3,12.3,42,0.00,,,0.00,VWS V14.01,2013-08-26 18:11:00,
2013-08-26 14:16:00,83.3,59.1,29.53,West,270,5.4,5.4,44,0.00,,,0.00,VWS V14.01,2013-08-26 18:16:00,
2013-08-26 14:21:00,83.3,59.1,29.53,West,270,5.8,5.8,44,0.00,,,0.00,VWS V14.01,2013-08-26 18:21:00,
2013-08-26 14:26:00,83.8,60.2,29.53,WNW,292,5.6,5.6,45,0.00,,,0.00,VWS V14.01,2013-08-26 18:26:00,
2013-08-26 14:31:00,84.4,59.5,29.53,SSW,202,6.5,6.5,43,0.00,,,0.00,VWS V14.01,2013-08-26 18:31:00,
2013-08-26 14:36:00,84.7,61.7,29.53,WSW,248,5.4,5.4,46,0.00,,,0.00,VWS V14.01,2013-08-26 18:36:00,
2013-08-26 14:42:00,85.1,61.4,29.53,WSW,248,7.4,7.4,45,0.00,,,0.00,VWS V14.01,2013-08-26 18:42:00,
2013-08-26 14:47:00,85.1,59.5,29.50,West,270,5.4,5.4,42,0.00,,,0.00,VWS V14.01,2013-08-26 18:47:00,
2013-08-26 14:52:00,84.9,60.6,29.50,SW,225,2.7,2.7,44,0.00,,,0.00,VWS V14.01,2013-08-26 18:52:00,
2013-08-26 14:57:00,85.6,61.9,29.50,SE,135,5.4,5.4,45,0.00,,,0.00,VWS V14.01,2013-08-26 18:57:00,
2013-08-26 15:02:00,86.0,62.2,29.50,WSW,248,4.9,4.9,45,0.00,,,0.00,VWS V14.01,2013-08-26 19:02:00,
2013-08-26 15:07:00,86.5,62.1,29.50,WNW,292,4.7,4.7,44,0.00,,,0.00,VWS V14.01,2013-08-26 19:07:00,
2013-08-26 15:12:00,86.7,61.6,29.50,West,270,3.6,3.6,43,0.00,,,0.00,VWS V14.01,2013-08-26 19:12:00,
2013-08-26 15:17:00,87.1,61.2,29.50,West,270,9.4,9.4,42,0.00,,,0.00,VWS V14.01,2013-08-26 19:17:00,
2013-08-26 15:22:00,87.3,62.1,29.50,WSW,248,2.0,2.0,43,0.00,,,0.00,VWS V14.01,2013-08-26 19:22:00,
2013-08-26 15:27:00,87.4,61.5,29.50,WSW,248,8.5,8.5,42,0.00,,,0.00,VWS V14.01,2013-08-26 19:27:00,
2013-08-26 15:32:00,87.8,61.2,29.47,SSW,202,6.5,6.5,41,0.00,,,0.00,VWS V14.01,2013-08-26 19:32:00,
2013-08-26 15:37:00,88.0,61.3,29.47,West,270,6.5,6.5,41,0.00,,,0.00,VWS V14.01,2013-08-26 19:37:00,
2013-08-26 15:42:00,88.2,60.8,29.47,WSW,248,4.3,4.3,40,0.00,,,0.00,VWS V14.01,2013-08-26 19:42:00,
2013-08-26 15:47:00,88.3,60.3,29.50,West,270,8.5,8.5,39,0.00,,,0.00,VWS V14.01,2013-08-26 19:47:00,
2013-08-26 15:52:00,88.2,60.1,29.50,WSW,248,6.0,6.0,39,0.00,,,0.00,VWS V14.01,2013-08-26 19:52:00,
2013-08-26 15:57:00,88.2,60.1,29.50,WSW,248,7.6,7.6,39,0.00,,,0.00,VWS V14.01,2013-08-26 19:57:00,
2013-08-26 16:02:00,88.0,60.0,29.47,West,270,5.6,5.6,39,0.00,,,0.00,VWS V14.01,2013-08-26 20:02:00,
2013-08-26 16:08:00,88.0,59.2,29.47,West,270,9.8,9.8,38,0.00,,,0.00,VWS V14.01,2013-08-26 20:08:00,
2013-08-26 16:13:00,88.0,60.0,29.47,SW,225,7.6,7.6,39,0.00,,,0.00,VWS V14.01,2013-08-26 20:13:00,
2013-08-26 16:18:00,87.6,59.6,29.47,WNW,292,7.4,7.4,39,0.00,,,0.00,VWS V14.01,2013-08-26 20:18:00,
2013-08-26 16:23:00,87.4,59.5,29.47,West,270,5.4,5.4,39,0.00,,,0.00,VWS V14.01,2013-08-26 20:23:00,
2013-08-26 16:28:00,87.6,59.6,29.47,WNW,292,6.3,6.3,39,0.00,,,0.00,VWS V14.01,2013-08-26 20:28:00,
2013-08-26 16:33:00,87.8,59.1,29.47,NW,315,7.2,7.2,38,0.00,,,0.00,VWS V14.01,2013-08-26 20:33:00,
2013-08-26 16:38:00,87.6,59.6,29.47,SW,225,4.3,4.3,39,0.00,,,0.00,VWS V14.01,2013-08-26 20:38:00,
2013-08-26 16:43:00,87.8,59.8,29.47,West,270,3.1,3.1,39,0.00,,,0.00,VWS V14.01,2013-08-26 20:43:00,
2013-08-26 16:48:00,87.6,60.3,29.47,West,270,3.1,3.1,40,0.00,,,0.00,VWS V14.01,2013-08-26 20:48:00,
2013-08-26 16:53:00,87.6,60.3,29.47,West,270,10.7,10.7,40,0.00,,,0.00,VWS V14.01,2013-08-26 20:53:00,
2013-08-26 16:58:00,87.3,59.3,29.47,WSW,248,4.0,4.0,39,0.00,,,0.00,VWS V14.01,2013-08-26 20:58:00,
2013-08-26 17:03:00,87.1,59.2,29.47,WSW,248,5.8,5.8,39,0.00,,,0.00,VWS V14.01,2013-08-26 21:03:00,
2013-08-26 17:08:00,86.9,59.0,29.47,West,270,6.0,6.0,39,0.00,,,0.00,VWS V14.01,2013-08-26 21:08:00,
2013-08-26 17:13:00,86.7,59.5,29.47,WSW,248,5.6,5.6,40,0.00,,,0.00,VWS V14.01,2013-08-26 21:13:00,
2013-08-26 17:18:00,86.7,59.5,29.47,West,270,5.8,5.8,40,0.00,,,0.00,VWS V14.01,2013-08-26 21:18:00,
2013-08-26 17:23:00,86.5,59.4,29.47,WNW,292,2.9,2.9,40,0.00,,,0.00,VWS V14.01,2013-08-26 21:23:00,
2013-08-26 17:28:00,86.4,59.2,29.47,WSW,248,4.9,4.9,40,0.00,,,0.00,VWS V14.01,2013-08-26 21:28:00,
2013-08-26 17:33:00,86.5,59.4,29.47,WNW,292,6.0,6.0,40,0.00,,,0.00,VWS V14.01,2013-08-26 21:33:00,
2013-08-26 17:39:00,86.4,59.9,29.47,West,270,3.6,3.6,41,0.00,,,0.00,VWS V14.01,2013-08-26 21:39:00,
2013-08-26 17:44:00,86.4,59.2,29.44,West,270,4.5,4.5,40,0.00,,,0.00,VWS V14.01,2013-08-26 21:44:00,
2013-08-26 17:49:00,86.2,59.7,29.44,WSW,248,2.0,2.0,41,0.00,,,0.00,VWS V14.01,2013-08-26 21:49:00,
2013-08-26 17:54:00,86.0,59.6,29.44,WSW,248,3.6,3.6,41,0.00,,,0.00,VWS V14.01,2013-08-26 21:54:00,
2013-08-26 17:59:00,85.6,59.9,29.44,West,270,2.7,2.7,42,0.00,,,0.00,VWS V14.01,2013-08-26 21:59:00,
2013-08-26 18:04:00,85.5,59.8,29.44,West,270,3.6,3.6,42,0.00,,,0.00,VWS V14.01,2013-08-26 22:04:00,
2013-08-26 18:09:00,85.1,59.5,29.44,WSW,248,4.9,4.9,42,0.00,,,0.00,VWS V14.01,2013-08-26 22:09:00,
2013-08-26 18:14:00,84.9,59.3,29.44,WSW,248,3.8,3.8,42,0.00,,,0.00,VWS V14.01,2013-08-26 22:14:00,
2013-08-26 18:19:00,84.6,59.6,29.44,South,180,2.2,2.2,43,0.00,,,0.00,VWS V14.01,2013-08-26 22:19:00,
2013-08-26 18:24:00,84.2,60.0,29.44,SSW,202,2.0,2.0,44,0.00,,,0.00,VWS V14.01,2013-08-26 22:24:00,
2013-08-26 18:29:00,84.2,60.0,29.41,SSW,202,2.2,2.2,44,0.00,,,0.00,VWS V14.01,2013-08-26 22:29:00,
2013-08-26 18:34:00,84.0,59.8,29.41,West,270,3.8,3.8,44,0.00,,,0.00,VWS V14.01,2013-08-26 22:34:00,
2013-08-26 18:40:00,83.8,59.6,29.41,West,270,3.4,3.4,44,0.00,,,0.00,VWS V14.01,2013-08-26 22:40:00,
2013-08-26 18:45:00,83.8,59.6,29.44,WSW,248,2.9,2.9,44,0.00,,,0.00,VWS V14.01,2013-08-26 22:45:00,
2013-08-26 18:50:00,83.8,59.6,29.44,West,270,3.4,3.4,44,0.00,,,0.00,VWS V14.01,2013-08-26 22:50:00,
2013-08-26 18:55:00,83.7,59.5,29.44,WNW,292,2.5,2.5,44,0.00,,,0.00,VWS V14.01,2013-08-26 22:55:00,
2013-08-26 19:00:00,83.3,59.1,29.44,West,270,2.9,2.9,44,0.00,,,0.00,VWS V14.01,2013-08-26 23:00:00,
2013-08-26 19:05:00,83.1,59.0,29.44,WNW,292,3.6,3.6,44,0.00,,,0.00,VWS V14.01,2013-08-26 23:05:00,
2013-08-26 19:10:00,82.9,59.4,29.44,WNW,292,3.6,3.6,45,0.00,,,0.00,VWS V14.01,2013-08-26 23:10:00,
2013-08-26 19:15:00,82.6,59.1,29.44,WNW,292,3.1,3.1,45,0.00,,,0.00,VWS V14.01,2013-08-26 23:15:00,
2013-08-26 19:20:00,82.4,59.0,29.44,West,270,3.4,3.4,45,0.00,,,0.00,VWS V14.01,2013-08-26 23:20:00,
2013-08-26 19:25:00,82.4,59.0,29.44,West,270,5.4,5.4,45,0.00,,,0.00,VWS V14.01,2013-08-26 23:25:00,
2013-08-26 19:30:00,82.2,58.8,29.44,West,270,3.1,3.1,45,0.00,,,0.00,VWS V14.01,2013-08-26 23:30:00,
2013-08-26 19:35:00,82.0,58.6,29.44,West,270,3.8,3.8,45,0.00,,,0.00,VWS V14.01,2013-08-26 23:35:00,
2013-08-26 19:40:00,81.9,58.5,29.44,West,270,4.3,4.3,45,0.00,,,0.00,VWS V14.01,2013-08-26 23:40:00,
2013-08-26 19:45:00,81.7,58.9,29.44,West,270,4.0,4.0,46,0.00,,,0.00,VWS V14.01,2013-08-26 23:45:00,
2013-08-26 19:50:00,81.5,58.8,29.44,WSW,248,2.5,2.5,46,0.00,,,0.00,VWS V14.01,2013-08-26 23:50:00,
2013-08-26 19:55:00,81.1,59.0,29.44,West,270,3.1,3.1,47,0.00,,,0.00,VWS V14.01,2013-08-26 23:55:00,
2013-08-26 20:00:00,80.8,58.7,29.47,WSW,248,0.0,0.0,47,0.00,,,0.00,VWS V14.01,2013-08-27 00:00:00,
2013-08-26 20:05:00,80.6,59.1,29.47,WSW,248,1.1,1.1,48,0.00,,,0.00,VWS V14.01,2013-08-27 00:05:00,
2013-08-26 20:10:00,80.2,59.4,29.47,SSW,202,2.9,2.9,49,0.00,,,0.00,VWS V14.01,2013-08-27 00:10:00,
2013-08-26 20:15:00,80.1,59.8,29.47,West,270,2.5,2.5,50,0.00,,,0.00,VWS V14.01,2013-08-27 00:15:00,
2013-08-26 20:20:00,79.9,59.6,29.47,WSW,248,2.5,2.5,50,0.00,,,0.00,VWS V14.01,2013-08-27 00:20:00,
2013-08-26 20:25:00,79.7,59.4,29.47,WSW,248,3.1,3.1,50,0.00,,,0.00,VWS V14.01,2013-08-27 00:25:00,
2013-08-26 20:30:00,79.7,59.4,29.44,West,270,4.3,4.3,50,0.00,,,0.00,VWS V14.01,2013-08-27 00:30:00,
2013-08-26 20:35:00,79.7,59.4,29.44,WSW,248,3.4,3.4,50,0.00,,,0.00,VWS V14.01,2013-08-27 00:35:00,
2013-08-26 20:40:00,79.7,59.4,29.44,West,270,3.6,3.6,50,0.00,,,0.00,VWS V14.01,2013-08-27 00:40:00,
2013-08-26 20:46:00,79.7,59.4,29.47,SSW,202,3.4,3.4,50,0.00,,,0.00,VWS V14.01,2013-08-27 00:46:00,
2013-08-26 20:51:00,79.7,59.4,29.47,West,270,5.6,5.6,50,0.00,,,0.00,VWS V14.01,2013-08-27 00:51:00,
2013-08-26 20:56:00,79.7,59.4,29.47,WNW,292,3.4,3.4,50,0.00,,,0.00,VWS V14.01,2013-08-27 00:56:00,
2013-08-26 21:01:00,78.8,63.3,29.47,NW,315,1.1,1.1,59,0.00,,,0.00,VWS V14.01,2013-08-27 01:01:00,
2013-08-26 21:06:00,77.7,64.1,29.47,South,180,2.2,2.2,63,0.00,,,0.00,VWS V14.01,2013-08-27 01:06:00,
2013-08-26 21:11:00,76.8,64.2,29.47,SSW,202,1.1,1.1,65,0.00,,,0.00,VWS V14.01,2013-08-27 01:11:00,
2013-08-26 21:16:00,76.3,64.5,29.47,WNW,292,0.0,0.0,67,0.00,,,0.00,VWS V14.01,2013-08-27 01:16:00,
2013-08-26 21:21:00,75.9,64.2,29.47,WSW,248,4.3,4.3,67,0.00,,,0.00,VWS V14.01,2013-08-27 01:21:00,
2013-08-26 21:26:00,75.9,63.3,29.47,WSW,248,7.2,7.2,65,0.00,,,0.00,VWS V14.01,2013-08-27 01:26:00,
2013-08-26 21:31:00,76.3,63.2,29.47,WSW,248,8.7,8.7,64,0.00,,,0.00,VWS V14.01,2013-08-27 01:31:00,
2013-08-26 21:36:00,76.3,62.8,29.47,WSW,248,4.9,4.9,63,0.00,,,0.00,VWS V14.01,2013-08-27 01:36:00,
2013-08-26 21:41:00,76.5,62.9,29.47,West,270,4.7,4.7,63,0.00,,,0.00,VWS V14.01,2013-08-27 01:41:00,
2013-08-26 21:46:00,76.3,63.7,29.47,WSW,248,2.2,2.2,65,0.00,,,0.00,VWS V14.01,2013-08-27 01:46:00,
2013-08-26 21:51:00,75.9,64.2,29.47,SSW,202,1.3,1.3,67,0.00,,,0.00,VWS V14.01,2013-08-27 01:51:00,
2013-08-26 21:56:00,75.6,64.3,29.47,SSW,202,1.1,1.1,68,0.00,,,0.00,VWS V14.01,2013-08-27 01:56:00,
2013-08-26 22:02:00,75.0,64.6,29.47,WSW,248,3.1,3.1,70,0.00,,,0.00,VWS V14.01,2013-08-27 02:02:00,
2013-08-26 22:07:00,75.0,64.2,29.47,WSW,248,1.6,1.6,69,0.00,,,0.00,VWS V14.01,2013-08-27 02:07:00,
2013-08-26 22:12:00,75.0,64.2,29.47,WSW,248,0.0,0.0,69,0.00,,,0.00,VWS V14.01,2013-08-27 02:12:00,
2013-08-26 22:17:00,74.7,64.6,29.47,SSW,202,2.0,2.0,71,0.00,,,0.00,VWS V14.01,2013-08-27 02:17:00,
2013-08-26 22:22:00,74.3,65.1,29.47,SSW,202,2.2,2.2,73,0.00,,,0.00,VWS V14.01,2013-08-27 02:22:00,
2013-08-26 22:27:00,74.1,65.3,29.47,SSW,202,0.0,0.0,74,0.00,,,0.00,VWS V14.01,2013-08-27 02:27:00,
2013-08-26 22:32:00,73.9,64.8,29.47,West,270,2.2,2.2,73,0.00,,,0.00,VWS V14.01,2013-08-27 02:32:00,
2013-08-26 22:37:00,73.8,65.3,29.47,WSW,248,1.3,1.3,75,0.00,,,0.00,VWS V14.01,2013-08-27 02:37:00,
2013-08-26 22:42:00,73.9,65.1,29.47,NW,315,1.3,1.3,74,0.00,,,0.00,VWS V14.01,2013-08-27 02:42:00,
2013-08-26 22:47:00,74.1,64.9,29.47,SW,225,5.8,5.8,73,0.00,,,0.00,VWS V14.01,2013-08-27 02:47:00,
2013-08-26 22:52:00,74.3,64.3,29.47,West,270,4.9,4.9,71,0.00,,,0.00,VWS V14.01,2013-08-27 02:52:00,
2013-08-26 22:57:00,74.5,64.5,29.47,WNW,292,4.3,4.3,71,0.00,,,0.00,VWS V14.01,2013-08-27 02:57:00,
2013-08-26 23:02:00,74.5,64.1,29.44,West,270,3.1,3.1,70,0.00,,,0.00,VWS V14.01,2013-08-27 03:02:00,
2013-08-26 23:07:00,74.5,64.1,29.44,West,270,4.3,4.3,70,0.00,,,0.00,VWS V14.01,2013-08-27 03:07:00,
2013-08-26 23:12:00,74.5,64.1,29.44,SSW,202,1.1,1.1,70,0.00,,,0.00,VWS V14.01,2013-08-27 03:12:00,
2013-08-26 23:17:00,74.5,64.1,29.44,West,270,3.8,3.8,70,0.00,,,0.00,VWS V14.01,2013-08-27 03:17:00,
2013-08-26 23:22:00,74.5,64.1,29.44,SW,225,2.2,2.2,70,0.00,,,0.00,VWS V14.01,2013-08-27 03:22:00,
2013-08-26 23:27:00,74.5,64.1,29.44,SSW,202,5.6,5.6,70,0.00,,,0.00,VWS V14.01,2013-08-27 03:27:00,
2013-08-26 23:32:00,74.5,64.1,29.44,West,270,7.8,7.8,70,0.00,,,0.00,VWS V14.01,2013-08-27 03:32:00,
2013-08-26 23:37:00,74.5,64.1,29.44,West,270,3.8,3.8,70,0.00,,,0.00,VWS V14.01,2013-08-27 03:37:00,
2013-08-26 23:42:00,74.5,64.1,29.44,WSW,248,4.7,4.7,70,0.00,,,0.00,VWS V14.01,2013-08-27 03:42:00,
2013-08-26 23:47:00,74.3,63.9,29.44,West,270,2.7,2.7,70,0.00,,,0.00,VWS V14.01,2013-08-27 03:47:00,
2013-08-26 23:52:00,74.3,63.9,29.44,WSW,248,1.1,1.1,70,0.00,,,0.00,VWS V14.01,2013-08-27 03:52:00,
2013-08-26 23:57:00,74.1,63.7,29.44,WSW,248,1.6,1.6,70,0.00,,,0.00,VWS V14.01,2013-08-27 03:57:00,